Time,TemperatureF,DewpointF,PressureIn,WindDirection,WindDirectionDegrees,WindSpeedMPH,WindSpeedGustMPH,Humidity,HourlyPrecipIn,Conditions,Clouds,dailyrainin,SolarRadiationWatts/m^2,SoftwareType,DateUTC
2013-04-06 00:03:00,38.0,30.0,-100.00,NNW,341,7.0,14.0,73,0.00,,,0.02,0.000000,,2013-04-06 06:03:00,
2013-04-06 00:12:00,38.0,30.0,-100.00,NNW,341,7.0,14.0,73,0.00,,,0.02,0.000000,,2013-04-06 06:12:00,
2013-04-06 00:22:00,38.0,30.0,-100.00,NNW,341,7.0,14.0,73,0.00,,,0.02,0.000000,,2013-04-06 06:22:00,
2013-04-06 00:32:00,38.0,30.0,-100.00,NNW,341,7.0,14.0,73,0.00,,,0.02,0.000000,,2013-04-06 06:32:00,
2013-04-06 01:03:00,35.0,29.0,-100.00,NNW,339,8.0,15.0,79,0.00,,,0.02,0.000000,,2013-04-06 07:03:00,
2013-04-06 01:12:00,35.0,29.0,-100.00,NNW,339,8.0,15.0,79,0.00,,,0.02,0.000000,,2013-04-06 07:12:00,
2013-04-06 01:22:00,35.0,29.0,-100.00,NNW,339,8.0,15.0,79,0.00,,,0.02,0.000000,,2013-04-06 07:22:00,
2013-04-06 01:33:00,35.0,29.0,-100.00,NNW,339,8.0,15.0,79,0.00,,,0.02,0.000000,,2013-04-06 07:33:00,
2013-04-06 02:02:00,39.0,28.0,-100.00,WNW,295,13.0,21.0,65,0.00,,,0.02,0.000000,,2013-04-06 08:02:00,
2013-04-06 02:13:00,39.0,28.0,-100.00,WNW,295,13.0,21.0,65,0.00,,,0.02,0.000000,,2013-04-06 08:13:00,
2013-04-06 02:22:00,39.0,28.0,-100.00,WNW,295,13.0,21.0,65,0.00,,,0.02,0.000000,,2013-04-06 08:22:00,
2013-04-06 02:32:00,39.0,28.0,-100.00,WNW,295,13.0,21.0,65,0.00,,,0.02,0.000000,,2013-04-06 08:32:00,
2013-04-06 03:02:00,40.0,25.0,-100.00,WSW,239,9.0,27.0,54,0.00,,,0.02,0.000000,,2013-04-06 09:02:00,
2013-04-06 03:12:00,40.0,25.0,-100.00,WSW,239,9.0,27.0,54,0.00,,,0.02,0.000000,,2013-04-06 09:12:00,
2013-04-06 03:22:00,40.0,25.0,-100.00,WSW,239,9.0,27.0,54,0.00,,,0.02,0.000000,,2013-04-06 09:22:00,
2013-04-06 03:33:00,40.0,25.0,-100.00,WSW,239,9.0,27.0,54,0.00,,,0.02,0.000000,,2013-04-06 09:33:00,
2013-04-06 04:03:00,34.0,29.0,-100.00,SE,145,9.0,22.0,81,0.00,,,0.02,0.000000,,2013-04-06 10:03:00,
2013-04-06 04:13:00,34.0,29.0,-100.00,SE,145,9.0,22.0,81,0.00,,,0.02,0.000000,,2013-04-06 10:13:00,
2013-04-06 04:23:00,34.0,29.0,-100.00,SE,145,9.0,22.0,81,0.00,,,0.02,0.000000,,2013-04-06 10:23:00,
2013-04-06 04:33:00,34.0,29.0,-100.00,SE,145,9.0,22.0,81,0.00,,,0.02,0.000000,,2013-04-06 10:33:00,
2013-04-06 05:02:00,34.0,27.0,-100.00,SSE,158,7.0,20.0,76,0.00,,,0.02,0.000000,,2013-04-06 11:02:00,
2013-04-06 05:12:00,34.0,27.0,-100.00,SSE,158,7.0,20.0,76,0.00,,,0.02,0.000000,,2013-04-06 11:12:00,
2013-04-06 05:23:00,34.0,27.0,-100.00,SSE,158,7.0,20.0,76,0.00,,,0.02,0.000000,,2013-04-06 11:23:00,
2013-04-06 05:33:00,34.0,27.0,-100.00,SSE,158,7.0,20.0,76,0.00,,,0.02,0.000000,,2013-04-06 11:33:00,
2013-04-06 06:02:00,26.0,23.0,-100.00,North,356,3.0,8.0,87,0.00,,,0.02,0.000000,,2013-04-06 12:02:00,
2013-04-06 06:12:00,26.0,23.0,-100.00,North,356,3.0,8.0,87,0.00,,,0.02,0.000000,,2013-04-06 12:12:00,
2013-04-06 06:22:00,26.0,23.0,-100.00,North,356,3.0,8.0,87,0.00,,,0.02,0.000000,,2013-04-06 12:22:00,
2013-04-06 06:32:00,26.0,23.0,-100.00,North,356,3.0,8.0,87,0.00,,,0.02,0.000000,,2013-04-06 12:32:00,
2013-04-06 07:03:00,26.0,23.0,-100.00,NNE,17,2.0,7.0,89,0.00,,,0.02,0.000000,,2013-04-06 13:03:00,
2013-04-06 07:13:00,26.0,23.0,-100.00,NNE,17,2.0,7.0,89,0.00,,,0.02,0.000000,,2013-04-06 13:13:00,
2013-04-06 07:23:00,26.0,23.0,-100.00,NNE,17,2.0,7.0,89,0.00,,,0.02,0.000000,,2013-04-06 13:23:00,
2013-04-06 07:32:00,26.0,23.0,-100.00,NNE,17,2.0,7.0,89,0.00,,,0.02,0.000000,,2013-04-06 13:32:00,
2013-04-06 08:04:00,27.0,25.0,-100.00,East,80,3.0,6.0,92,0.00,,,0.02,22.000000,,2013-04-06 14:04:00,
2013-04-06 08:12:00,27.0,25.0,-100.00,East,80,3.0,6.0,92,0.00,,,0.02,22.000000,,2013-04-06 14:12:00,
2013-04-06 08:22:00,27.0,25.0,-100.00,East,80,3.0,6.0,92,0.00,,,0.02,22.000000,,2013-04-06 14:22:00,
2013-04-06 08:32:00,27.0,25.0,-100.00,East,80,3.0,6.0,92,0.00,,,0.02,22.000000,,2013-04-06 14:32:00,
2013-04-06 09:02:00,37.0,29.0,-100.00,SSE,166,7.0,11.0,73,0.00,,,0.02,183.000000,,2013-04-06 15:02:00,
2013-04-06 09:12:00,37.0,29.0,-100.00,SSE,166,7.0,11.0,73,0.00,,,0.02,183.000000,,2013-04-06 15:12:00,
2013-04-06 09:23:00,37.0,29.0,-100.00,SSE,166,7.0,11.0,73,0.00,,,0.02,183.000000,,2013-04-06 15:23:00,
2013-04-06 09:33:00,37.0,29.0,-100.00,SSE,166,7.0,11.0,73,0.00,,,0.02,183.000000,,2013-04-06 15:33:00,
2013-04-06 10:05:00,43.0,30.0,-100.00,South,169,7.0,11.0,61,0.00,,,0.02,336.000000,,2013-04-06 16:05:00,
2013-04-06 10:17:00,43.0,30.0,-100.00,South,169,7.0,11.0,61,0.00,,,0.02,336.000000,,2013-04-06 16:17:00,
2013-04-06 10:23:00,43.0,30.0,-100.00,South,169,7.0,11.0,61,0.00,,,0.02,336.000000,,2013-04-06 16:23:00,
2013-04-06 10:32:00,43.0,30.0,-100.00,South,169,7.0,11.0,61,0.00,,,0.02,336.000000,,2013-04-06 16:32:00,
2013-04-06 11:03:00,47.0,28.0,-100.00,SE,139,6.0,14.0,48,0.00,,,0.02,616.000000,,2013-04-06 17:03:00,
2013-04-06 11:12:00,47.0,28.0,-100.00,SE,139,6.0,14.0,48,0.00,,,0.02,616.000000,,2013-04-06 17:12:00,
2013-04-06 11:22:00,47.0,28.0,-100.00,SE,139,6.0,14.0,48,0.00,,,0.02,616.000000,,2013-04-06 17:22:00,
2013-04-06 11:32:00,47.0,28.0,-100.00,SE,139,6.0,14.0,48,0.00,,,0.02,616.000000,,2013-04-06 17:32:00,
2013-04-06 12:03:00,53.0,14.0,-100.00,West,262,9.0,20.0,21,0.00,,,0.02,786.000000,,2013-04-06 18:03:00,
2013-04-06 12:12:00,53.0,14.0,-100.00,West,262,9.0,20.0,21,0.00,,,0.02,786.000000,,2013-04-06 18:12:00,
2013-04-06 12:23:00,53.0,14.0,-100.00,West,262,9.0,20.0,21,0.00,,,0.02,786.000000,,2013-04-06 18:23:00,
2013-04-06 12:32:00,53.0,14.0,-100.00,West,262,9.0,20.0,21,0.00,,,0.02,786.000000,,2013-04-06 18:32:00,
2013-04-06 13:03:00,53.0,12.0,-100.00,NNW,327,15.0,27.0,19,0.00,,,0.02,933.000000,,2013-04-06 19:03:00,
2013-04-06 13:12:00,53.0,12.0,-100.00,NNW,327,15.0,27.0,19,0.00,,,0.02,933.000000,,2013-04-06 19:12:00,
2013-04-06 13:23:00,53.0,12.0,-100.00,NNW,327,15.0,27.0,19,0.00,,,0.02,933.000000,,2013-04-06 19:23:00,
2013-04-06 13:32:00,53.0,12.0,-100.00,NNW,327,15.0,27.0,19,0.00,,,0.02,933.000000,,2013-04-06 19:32:00,
2013-04-06 14:03:00,55.0,18.0,-100.00,NNW,333,18.0,32.0,23,0.00,,,0.02,1029.000000,,2013-04-06 20:03:00,
2013-04-06 14:12:00,55.0,18.0,-100.00,NNW,333,18.0,32.0,23,0.00,,,0.02,1029.000000,,2013-04-06 20:12:00,
2013-04-06 14:22:00,55.0,18.0,-100.00,NNW,333,18.0,32.0,23,0.00,,,0.02,1029.000000,,2013-04-06 20:22:00,
2013-04-06 14:32:00,55.0,18.0,-100.00,NNW,333,18.0,32.0,23,0.00,,,0.02,1029.000000,,2013-04-06 20:32:00,
2013-04-06 15:02:00,55.0,15.0,-100.00,NW,324,16.0,31.0,20,0.00,,,0.02,621.000000,,2013-04-06 21:02:00,
2013-04-06 15:13:00,55.0,15.0,-100.00,NW,324,16.0,31.0,20,0.00,,,0.02,621.000000,,2013-04-06 21:13:00,
2013-04-06 15:22:00,55.0,15.0,-100.00,NW,324,16.0,31.0,20,0.00,,,0.02,621.000000,,2013-04-06 21:22:00,
2013-04-06 15:33:00,55.0,15.0,-100.00,NW,324,16.0,31.0,20,0.00,,,0.02,621.000000,,2013-04-06 21:33:00,
2013-04-06 16:03:00,55.0,10.0,-100.00,NW,317,17.0,27.0,16,0.00,,,0.02,542.000000,,2013-04-06 22:03:00,
2013-04-06 16:13:00,55.0,10.0,-100.00,NW,317,17.0,27.0,16,0.00,,,0.02,542.000000,,2013-04-06 22:13:00,
2013-04-06 16:23:00,55.0,10.0,-100.00,NW,317,17.0,27.0,16,0.00,,,0.02,542.000000,,2013-04-06 22:23:00,
2013-04-06 16:34:00,55.0,10.0,-100.00,NW,317,17.0,27.0,16,0.00,,,0.02,542.000000,,2013-04-06 22:34:00,
2013-04-06 17:03:00,57.0,10.0,-100.00,NW,314,18.0,28.0,15,0.00,,,0.02,754.000000,,2013-04-06 23:03:00,
2013-04-06 17:13:00,57.0,10.0,-100.00,NW,314,18.0,28.0,15,0.00,,,0.02,754.000000,,2013-04-06 23:13:00,
2013-04-06 17:23:00,57.0,10.0,-100.00,NW,314,18.0,28.0,15,0.00,,,0.02,754.000000,,2013-04-06 23:23:00,
2013-04-06 17:34:00,57.0,10.0,-100.00,NW,314,18.0,28.0,15,0.00,,,0.02,754.000000,,2013-04-06 23:34:00,
2013-04-06 18:02:00,55.0,11.0,-100.00,NW,307,15.0,30.0,17,0.00,,,0.02,635.000000,,2013-04-07 00:02:00,
2013-04-06 18:13:00,55.0,11.0,-100.00,NW,307,15.0,30.0,17,0.00,,,0.02,635.000000,,2013-04-07 00:13:00,
2013-04-06 18:22:00,55.0,11.0,-100.00,NW,307,15.0,30.0,17,0.00,,,0.02,635.000000,,2013-04-07 00:22:00,
2013-04-06 18:32:00,55.0,11.0,-100.00,NW,307,15.0,30.0,17,0.00,,,0.02,635.000000,,2013-04-07 00:32:00,
2013-04-06 19:02:00,50.0,13.0,-100.00,NW,316,12.0,24.0,22,0.00,,,0.02,176.000000,,2013-04-07 01:02:00,
2013-04-06 19:12:00,50.0,13.0,-100.00,NW,316,12.0,24.0,22,0.00,,,0.02,176.000000,,2013-04-07 01:12:00,
2013-04-06 19:23:00,50.0,13.0,-100.00,NW,316,12.0,24.0,22,0.00,,,0.02,176.000000,,2013-04-07 01:23:00,
2013-04-06 19:32:00,50.0,13.0,-100.00,NW,316,12.0,24.0,22,0.00,,,0.02,176.000000,,2013-04-07 01:32:00,
2013-04-06 20:03:00,48.0,15.0,-100.00,NW,304,5.0,18.0,26,0.00,,,0.02,24.000000,,2013-04-07 02:03:00,
2013-04-06 20:12:00,48.0,15.0,-100.00,NW,304,5.0,18.0,26,0.00,,,0.02,24.000000,,2013-04-07 02:12:00,
2013-04-06 20:23:00,48.0,15.0,-100.00,NW,304,5.0,18.0,26,0.00,,,0.02,24.000000,,2013-04-07 02:23:00,
2013-04-06 20:32:00,48.0,15.0,-100.00,NW,304,5.0,18.0,26,0.00,,,0.02,24.000000,,2013-04-07 02:32:00,
2013-04-06 21:02:00,47.0,16.0,-100.00,WNW,301,9.0,17.0,29,0.00,,,0.00,0.000000,,2013-04-07 03:02:00,
2013-04-06 21:12:00,47.0,16.0,-100.00,WNW,301,9.0,17.0,29,0.00,,,0.00,0.000000,,2013-04-07 03:12:00,
2013-04-06 21:22:00,47.0,16.0,-100.00,WNW,301,9.0,17.0,29,0.00,,,0.00,0.000000,,2013-04-07 03:22:00,
2013-04-06 21:34:00,47.0,16.0,-100.00,WNW,301,9.0,17.0,29,0.00,,,0.00,0.000000,,2013-04-07 03:34:00,
2013-04-06 22:03:00,44.0,16.0,-100.00,NW,311,7.0,14.0,32,0.00,,,0.00,0.000000,,2013-04-07 04:03:00,
2013-04-06 22:14:00,44.0,16.0,-100.00,NW,311,7.0,14.0,32,0.00,,,0.00,0.000000,,2013-04-07 04:14:00,
2013-04-06 22:23:00,44.0,16.0,-100.00,NW,311,7.0,14.0,32,0.00,,,0.00,0.000000,,2013-04-07 04:23:00,
2013-04-06 22:32:00,44.0,16.0,-100.00,NW,311,7.0,14.0,32,0.00,,,0.00,0.000000,,2013-04-07 04:32:00,
2013-04-06 23:02:00,41.0,17.0,-100.00,NW,309,9.0,13.0,37,0.00,,,0.00,0.000000,,2013-04-07 05:02:00,
2013-04-06 23:12:00,41.0,17.0,-100.00,NW,309,9.0,13.0,37,0.00,,,0.00,0.000000,,2013-04-07 05:12:00,
2013-04-06 23:23:00,41.0,17.0,-100.00,NW,309,9.0,13.0,37,0.00,,,0.00,0.000000,,2013-04-07 05:23:00,
2013-04-06 23:33:00,41.0,17.0,-100.00,NW,309,9.0,13.0,37,0.00,,,0.00,0.000000,,2013-04-07 05:33:00,